User: anonymous   Login
Location: Doux
(49.5045°N, 4.4321°E)
Time: 07:04:01
(UTC+00:00)
Language:

Cosmos 1741 Rocket - Orbit

View from above orbital plane
View from above orbital plane
View from above satellite
View from above satellite

Ground track
Ground track

The orbit data is extracted from the following two-line orbital elements,

1 16682U 86030B   24205.83928639  .00000680  00000-0  23966-3 0  9994
2 16682  74.0256 141.8026 0015388 214.5854 159.8205 14.36652639  3159
Epoch (UTC): 23 July 2024 20:08:34
Eccentricity: 0.0015388
inclination: 74.0256°
perigee height: 758 km
apogee height: 780 km
right ascension of ascending node: 141.8026°
argument of perigee: 214.5854°
revolutions per day: 14.36652639
mean anomaly at epoch: 159.8205°
orbit number at epoch: 315

The dashed part of the orbit path shows where the satellite is in the earth's shadow,  

DLR